Regional Weather Roundup
Issued by NWS Spokane, WA

Home | Current Version | Previous Version | Text Only | Print | Product List | Glossary On
Versions: 1 2 3 4 5 6 7 8 9 10 11 12 13 14 15 16 17 18 19 20 21 22 23 24 25 26 27 28 29 30 31 32 33 34 35 36 37 38 39 40 41 42 43 44 45 46 47 48 49 50
000
NZUS01 KOTX 021500
RWROTX
EASTERN WASHINGTON/NORTHERN IDAHO ROUNDUP
NATIONAL WEATHER SERVICE, SPOKANE WA
800 AM PDT SUN AUG 02 2015

Note: "fair" indicated few or no clouds below 12,000 feet with no
significant weather and/or obstructions to visibility.

...NORTHEAST WASHINGTON AND NORTHERN IDAHO PANHANDLE...

CITY           SKY/WX    TMP DP  RH WIND       PRES   REMARKS
SPOKANE INTL   PTSUNNY   69  36  29 NE6       29.94R
SPOKANE DOWNTO PTSUNNY   66  42  41 CALM      29.94R
COEUR D ALENE  MOSUNNY   66  43  42 NE8       29.95R
DEER PARK      PTSUNNY   63  38  39 CALM      29.94R HAZE
SANDPOINT      MOSUNNY   61  41  48 CALM      29.96R

...SOUTHEAST WASHINGTON AND SOUTHERN IDAHO PANHANDLE...

CITY           SKY/WX    TMP DP  RH WIND       PRES   REMARKS
WALLA WALLA    MOSUNNY   80  30  16 S3        29.88R
PULLMAN/MOSCOW MOSUNNY   73  32  22 E9        29.97R
LOWELL           N/A     60  48  64 N3        30.01F

...COLUMBIA BASIN...

CITY           SKY/WX    TMP DP  RH WIND       PRES   REMARKS
EPHRATA        PTSUNNY   76  37  24 N3        29.86S HAZE
MOSES LAKE     MOSUNNY   67  44  43 CALM      29.88R
TRI CITIES     MOSUNNY   68  51  54 CALM      29.85R
HERMISTON      PTSUNNY   72  34  24 S5        29.85R
PENDLETON      MOSUNNY   74  25  16 SE5       29.89R

...EAST SLOPES CASCADES...

CITY           SKY/WX    TMP DP  RH WIND       PRES   REMARKS
THE DALLES     MOSUNNY   76  50  40 NW10      29.85R
YAKIMA         SUNNY     73  42  32 W8        29.89R
ELLENSBURG     SUNNY     69  39  33 E6        29.92R
WENATCHEE      SUNNY     74  40  29 W10       29.89S
OMAK           SUNNY     74  32  21 N8        29.90R

...SOUTHERN BRITISH COLUMBIA...

CITY           SKY/WX    TMP DP  RH WIND       PRES   REMARKS

...WESTERN MONTANA...

CITY           SKY/WX    TMP DP  RH WIND       PRES   REMARKS
MISSOULA       MOSUNNY   60  42  51 CALM      30.08R

...NEIGHBORING CITIES...

CITY           SKY/WX    TMP DP  RH WIND       PRES   REMARKS
SEATTLE        PTSUNNY   65  54  67 W5        29.96R



USA.gov is the U.S. government's official web portal to all federal, state and local government web resources and services.